Weather in Cambrils

Spain     41°04′29″N   1°03′17″E
temp.,
°C
wind,
m/s
gust,
m/s
humid.,
%
clouds,
%
prec.,
mm/h
press.,
hPa
HPBL,
m
23 april, fri
fri2323:00+13n117212 0.0 1020159
02:00+13nw22705 0.0 102093
05:00+12nw22680 0.0 101982
08:00+13nne22660 0.0 1019125
11:00+14e34650 0.0 1021420
14:00+14ese34645 0.0 1022456
17:00+14e34665 0.0 1020386
20:00+14e237172 0.0 1021299
24 april, sat
sat2423:00+14e2380100 0.0 1022226
02:00+13ene348071 0.0 1021327
05:00+13ene347610 0.0 1020325
08:00+13ene447014 0.0 1021337
11:00+14e456767 0.0 1021455
14:00+15ese4475100 0.0 1021391
17:00+15ese3472100 0.0 1019397
20:00+15ese3380100 0.0 1019287
25 april, sun
sun2523:00+15ene2383100 0.0 1019161
02:00+14ne44806 0.0 1018173
05:00+14ese2276100 0.0 101735
08:00+14ne5780100 1.4 1016421
11:00+16ne4662100 0.0 1016339
14:00+16e710685 0.0 1015478
17:00+16ene8126935 0.0 1012465
20:00+16ene9137252 0.0 1011432
26 april, mon
mon2623:00+15ene101477100 0.1 1011558
02:00+15ene81276100 0.5 1010636
05:00+14ne71173100 0.5 1008559
08:00+15nne2473100 1.0 1007191
11:00+15ne1371100 0.1 1007201
14:00+14ese1278100 0.4 1006204
17:00+15s227618 0.1 1005295
20:00+15ssw338123 0.1 1005219
27 april, tue
tue2723:00+14wsw358897 0.8 1006223
02:00+14w238678 0.8 1004100
05:00+14nw22845 0.0 100330
08:00+15wnw348463 0.0 100393
11:00+18wnw566437 0.0 1004312
14:00+19sw586474 0.0 1003552
17:00+17sw8107795 0.1 1002408
20:00+19wsw796472 0.3 1003244